Probability
0 0 0 0 0 0 0 0 0 0 0 0 0 0 0 0 0 0 0 0 0 0 0 0 0 0 0 0 0 0 0 0 0 0 0 0 0 0
0 0 0 0 0 0 0 0 0 0 0 0 0 0 0 0 0 0 0 0 0 0 0 0 0 0 0 0 0 0 0 0 0 0 0 0 0 0
0 0 0 0 0 0 0 0 0 0 0 0 0 0 0 0 0 0 0 0 0 0 0 0 0 0 0 0 0 0 0 0 0 0 0 0 0 0
0 0 0 0 0 0 0 0 0 0 0 0 0 0 0 0 0 0 0 0 0 0 0 0 0 0 0 0 0 0 0 0 0 0 0 0 0 0
0 0 0 0 0 0 0 0 0 0 0 0 0 0 0 0 0 0 0 0 0 0 0 0 0 0 0 0 0 0 0 0 0 0 0 0 0 0
0 0 0 0 0 0 0 0 0 0 0 0 0 0 0 0 0 0 0 0 0 0 0 0 0 0 0 0 0 0 0 0 0 0 0 0 0 0
0 0 0 0 0 0 0 0 0 0 0 0 0 0 0 0 0 0 0 0 0 0 0 0 0 0 0 0 0 0 0 0 0 0 0 0 0 0
0 0 0 0 0 0 0 0 0 0 0 0 0 0 0 0 0 0 0 0 0 0 0 0 0 0 0 0 0 0 0 0 0 0 0 0 0 0
0 0 0 0 0 0 0 0 0 0 0 0 0 0 0 0 0 0 0 0 0 0 0 0 0 0 0 0 0 0 0 0 0 0 0 0 0 0
0 0 0 0 0 0 0 0 0 0 0 0 0 0 0 0 0 0 0 0 0 0 0 0 0 0 0 0 0 0 0 0 0 0 0 0 0 0
0 0 0 0 0 0 0 0 0 0 0 0 0 0 0 0 0 0 0 0 0 0 0 0 0 0 0 0 0 0 0 0 0 0 0 0 0 0
0 0 0 0 0 0 0 0 0 0 0 0 0 0 0 0 0 0 0 0 0 0 0 0 0 0 0 0 0 0 0 0 0 0 0 0 0 0
0 0 0 0 0 0 0 0 0 0 0 0 0 0 0 0 0 0 0 0 0 0 0 0 0 0 0 0 0 0 0 0 0 0 0 0 0 0
0 0 0 0 0 0 0 0 0 0 0 0 0 0 0 0 0 0 0 0 0 0 0 0 0 0 0 0 0 0 0 0 0 0 0 0 0 0
0 0 0 0 0 0 0 0 0 0 0 0 0 0 0 0 0 0 0 0 0 0 0 0 0 0 0 0 0 0 0 0 0 0 0 0 0 0
0 0 0 0 0 0 0 0 0 0 0 0 0 0 0 0 0 0 0 0 0 0 0 0 0 0 0 0 0 0 0 0 0 0 0 0 0 0
0 0 0 0 0 0 0 0 0 0 0 0 0 0 0 0 0 0 0 0 0 0 0 0 0 0 0 0 0 0 0 0 0 0 0 0 0 0
0 0 0 0 0 0 0 0 0 0 0 0 0 0 0 0 0 0 0 0 0 0 0 0 0 0 0 0 0 0 0 0 0 0 0 0 0 0
0 0 0 0 0 0 0 0 0 0 0 0 0 0 0 0 0 0 0 0 0 0 0 0 0 0 0 0 0 0 0 0 0 0 0 0 0 0
0 0 0 0 0 0 0 0 0 0 0 0 0 0 0 0 0 0 0 0 0 0 0 0 0 0 0 0 0 0 0 0 0 0 0 0 0 0
0 0 0 0 0 0 0 0 0 0 0 0 0 0 0 0 0 0 0 0 0 0 0 0 0 0 0 0 0 0 0 0 0 0 0 0 0 0
0 0 0 0 0 0 0 0 0 0 0 0 0 0 0 0 0 0 0 0 0 0 0 0 0 0 0 0 0 0 0 0 0 0 0 0 0 0
0 0 0 0 0 0 0 0 0 0 0 0 0 0 0 0 0 0 0 0 0 0 0 0 0 0 0 0 0 0 0 0 0 0 0 0 0 0
Height
5761 5764 5766 5768 5770 5772 5773 5775 5776 5777 5778 5778 5777 5777 5776 5775 5774 5773 5772 5771 5769 5768 5766 5764 5762 5760 5758 5756 5753 5751 5749 5746 5744 5741 5738 5736 5733 5730
5750 5753 5756 5758 5760 5761 5763 5764 5765 5767 5768 5768 5767 5767 5766 5765 5764 5763 5762 5761 5759 5758 5756 5754 5752 5750 5748 5746 5743 5741 5738 5736 5733 5731 5728 5725 5722 5719
5739 5742 5745 5746 5749 5751 5752 5753 5755 5755 5756 5757 5756 5756 5755 5754 5753 5752 5751 5750 5749 5747 5745 5743 5741 5739 5737 5735 5732 5730 5728 5725 5722 5720 5717 5714 5711 5708
5727 5731 5733 5735 5737 5739 5741 5742 5743 5744 5745 5745 5745 5744 5744 5743 5742 5741 5740 5739 5737 5736 5734 5732 5730 5728 5726 5724 5721 5719 5716 5714 5711 5708 5706 5703 5700 5698
5716 5719 5721 5723 5725 5727 5729 5730 5731 5732 5733 5733 5733 5733 5733 5732 5731 5730 5729 5727 5726 5724 5723 5721 5719 5717 5715 5712 5710 5707 5705 5702 5700 5697 5695 5692 5690 5687
5704 5707 5709 5711 5713 5715 5716 5717 5718 5719 5720 5721 5721 5721 5721 5720 5719 5718 5717 5716 5715 5713 5711 5709 5707 5705 5703 5701 5699 5696 5693 5691 5688 5686 5683 5681 5678 5676
5692 5695 5697 5699 5700 5702 5703 5705 5706 5707 5707 5708 5709 5709 5709 5708 5708 5707 5706 5704 5703 5701 5700 5698 5696 5694 5691 5688 5686 5684 5681 5679 5677 5674 5672 5669 5666 5664
5680 5682 5684 5686 5688 5689 5691 5692 5693 5694 5695 5695 5696 5696 5696 5696 5695 5694 5693 5693 5692 5690 5688 5686 5683 5681 5678 5676 5674 5672 5670 5667 5665 5662 5660 5657 5654 5651
5667 5669 5671 5673 5675 5676 5678 5679 5680 5680 5682 5683 5683 5684 5684 5684 5683 5682 5681 5679 5679 5677 5675 5673 5671 5668 5666 5663 5661 5659 5657 5655 5652 5650 5647 5644 5641 5638
5653 5656 5658 5660 5662 5663 5665 5666 5667 5668 5669 5670 5671 5671 5671 5670 5670 5669 5668 5667 5666 5664 5661 5660 5658 5655 5653 5651 5649 5647 5644 5642 5639 5636 5634 5631 5628 5625
5640 5642 5645 5647 5649 5650 5652 5653 5654 5655 5655 5656 5657 5657 5657 5657 5656 5655 5654 5653 5652 5651 5648 5647 5645 5642 5640 5638 5636 5634 5631 5629 5626 5623 5620 5617 5614 5611
5626 5629 5631 5633 5635 5636 5638 5639 5641 5642 5642 5643 5643 5644 5643 5643 5642 5641 5640 5639 5638 5638 5636 5633 5631 5629 5628 5626 5623 5621 5618 5615 5612 5609 5606 5603 5600 5596
5612 5614 5617 5619 5620 5622 5624 5626 5627 5628 5628 5629 5629 5630 5629 5629 5628 5627 5626 5625 5624 5624 5622 5620 5618 5616 5615 5614 5611 5608 5605 5602 5599 5596 5592 5588 5585 5581
5597 5600 5602 5604 5606 5608 5609 5611 5612 5613 5614 5614 5615 5615 5615 5615 5614 5613 5612 5611 5610 5609 5608 5606 5605 5603 5601 5600 5598 5595 5592 5588 5585 5582 5578 5574 5570 5567
5583 5585 5588 5590 5592 5593 5595 5596 5597 5598 5599 5600 5600 5601 5601 5600 5599 5598 5597 5596 5596 5595 5594 5593 5591 5589 5587 5586 5584 5581 5578 5575 5571 5568 5564 5560 5556 5552
5568 5571 5573 5575 5577 5579 5580 5582 5582 5583 5584 5585 5586 5586 5586 5585 5585 5584 5583 5582 5582 5582 5581 5579 5577 5575 5573 5571 5569 5566 5563 5561 5557 5553 5549 5545 5541 5537
5554 5556 5559 5561 5562 5564 5566 5567 5568 5569 5569 5570 5571 5571 5571 5570 5570 5570 5569 5568 5568 5568 5567 5565 5563 5560 5558 5556 5554 5552 5549 5546 5542 5539 5535 5531 5526 5522
5540 5542 5544 5546 5548 5550 5551 5553 5554 5554 5555 5556 5556 5556 5556 5556 5556 5555 5554 5554 5554 5553 5552 5551 5549 5547 5545 5542 5540 5537 5534 5531 5528 5524 5520 5516 5512 5507
5526 5528 5530 5532 5534 5535 5537 5538 5540 5541 5541 5542 5542 5542 5542 5541 5541 5540 5540 5539 5539 5538 5537 5536 5534 5532 5530 5529 5526 5522 5519 5516 5512 5509 5505 5501 5498 5493
5513 5515 5517 5519 5520 5521 5523 5524 5526 5526 5527 5528 5528 5528 5528 5527 5527 5526 5525 5525 5524 5524 5522 5521 5519 5517 5515 5513 5511 5508 5504 5501 5498 5494 5491 5487 5483 5478
5501 5503 5504 5506 5507 5508 5510 5511 5512 5512 5513 5513 5514 5514 5514 5513 5512 5512 5511 5511 5510 5509 5508 5507 5505 5502 5499 5497 5496 5494 5490 5486 5483 5480 5477 5474 5470 5467
5489 5490 5492 5493 5495 5496 5497 5498 5498 5499 5499 5500 5500 5500 5499 5499 5498 5497 5497 5496 5495 5494 5493 5492 5490 5487 5485 5483 5481 5479 5477 5473 5470 5466 5462 5460 5456 5454
5477 5478 5480 5481 5482 5483 5484 5485 5486 5486 5486 5486 5486 5486 5485 5485 5484 5483 5483 5482 5481 5480 5478 5477 5475 5473 5471 5469 5468 5466 5463 5461 5457 5454 5450 5446 5443 5440
Wind_Speed
43 42 41 41 40 39 39 39 39 39 39 38 38 38 39 39 39 38 38 37 37 38 38 38 38 39 39 39 39 39 39 39 40 40 41 41 41 40
45 45 44 44 43 42 42 41 41 41 41 41 41 41 41 41 40 40 39 39 39 39 39 39 40 40 40 40 41 40 40 41 42 43 43 43 43 43
46 46 44 44 44 44 44 43 43 43 43 43 43 43 42 41 41 41 40 40 40 40 40 40 41 41 41 42 42 42 42 43 43 44 44 44 43 43
47 46 45 45 45 45 45 44 44 44 44 43 43 42 42 42 42 42 41 41 42 42 41 41 42 42 43 43 43 43 44 44 44 44 43 43 42 42
47 47 47 47 47 46 46 46 46 46 45 45 44 43 43 43 43 43 43 43 43 43 43 44 44 44 44 45 44 44 44 44 44 43 42 42 43 43
48 48 48 48 48 48 48 49 48 47 47 46 45 45 44 45 44 44 44 45 45 45 45 45 45 45 45 46 45 44 43 43 43 43 44 44 44 44
49 49 49 49 48 49 49 49 48 47 47 47 46 46 46 46 46 46 46 46 46 46 46 46 46 46 46 46 45 44 43 43 44 44 45 45 45 45
49 48 48 49 49 49 48 48 48 48 48 48 48 47 47 47 47 47 47 47 46 46 47 47 47 47 46 46 46 45 44 44 45 46 46 46 46 47
50 50 50 49 48 48 48 48 48 48 48 48 48 48 47 47 48 47 47 47 47 47 48 47 47 47 47 46 46 46 46 46 46 46 47 47 48 48
52 52 51 49 48 48 48 48 48 48 48 48 48 48 48 49 48 48 48 48 48 48 49 48 47 47 47 47 46 47 47 47 48 48 48 49 50 50
53 52 52 51 50 49 48 48 48 48 48 48 48 49 49 50 49 49 49 50 49 49 49 48 47 47 46 47 47 47 48 48 48 49 50 51 51 51
52 52 52 51 51 51 50 49 49 49 49 49 49 49 50 50 50 50 50 50 50 49 48 48 47 46 46 46 47 47 48 48 49 50 51 51 52 52
52 51 51 51 51 51 50 50 51 50 50 50 50 50 51 51 51 51 51 51 50 49 48 48 47 47 47 47 47 48 48 49 50 51 51 51 52 52
51 51 51 50 51 51 50 51 51 51 51 51 52 52 52 52 52 52 52 51 51 50 49 49 49 49 49 48 48 49 49 50 51 51 51 52 52 53
51 51 51 51 51 51 51 51 51 52 52 52 52 52 52 52 53 53 53 52 51 50 50 50 50 50 50 50 50 50 51 51 52 52 52 53 54 54
51 51 51 51 51 51 51 51 51 52 52 52 52 52 52 53 53 53 52 52 51 50 50 50 51 51 51 51 51 52 52 52 52 53 53 54 55 55
51 51 51 51 51 51 51 51 50 50 50 51 52 52 53 53 53 52 51 50 50 50 50 51 51 51 51 52 52 53 53 53 53 54 54 55 55 55
50 50 50 50 50 50 50 50 50 50 50 50 51 51 51 52 52 52 51 51 51 51 51 51 52 52 52 53 53 53 53 53 53 54 54 54 54 54
47 47 47 47 47 48 49 49 49 50 50 50 50 50 50 51 51 51 51 51 51 51 50 51 52 52 52 52 52 53 54 53 53 53 53 53 52 52
44 45 45 46 46 46 47 47 48 48 49 49 49 49 49 49 49 50 50 50 50 51 50 51 51 52 52 52 51 52 52 52 52 51 51 51 51 50
42 43 43 44 44 43 44 45 46 46 47 48 48 48 48 48 48 49 49 49 50 51 51 51 50 51 51 51 50 49 50 50 50 50 49 49 48 47
41 41 42 42 42 42 43 43 43 44 45 46 46 47 47 47 47 48 48 49 49 50 50 49 49 49 49 49 49 48 47 47 47 47 47 46 45 44
38 39 40 41 41 41 42 42 42 42 43 44 44 45 45 46 46 46 46 47 47 47 47 47 47 47 47 47 46 46 45 45 44 44 44 44 44 43
Wind_Direction
247 249 251 253 255 256 257 259 262 263 265 267 268 271 273 275 277 278 279 280 282 282 284 285 286 287 288 288 288 288 288 288 288 289 290 292 292 292
248 250 252 254 256 257 258 260 262 264 266 267 268 271 273 275 276 278 278 279 281 283 284 284 284 285 286 286 286 287 287 288 289 290 290 290 292 292
250 251 252 255 256 256 258 260 261 264 266 267 269 271 273 274 276 278 279 280 281 282 282 283 283 284 285 285 286 286 287 288 289 290 290 290 291 291
249 250 252 254 255 257 258 259 261 263 265 267 268 270 272 274 275 276 278 279 280 280 281 282 282 283 285 285 286 286 286 287 289 289 290 290 290 290
249 250 252 253 256 258 259 261 262 264 265 267 268 269 271 273 275 276 277 278 280 279 280 281 282 283 285 285 286 286 286 286 286 287 287 288 289 290
250 251 253 256 258 259 261 262 264 264 265 267 268 269 270 273 274 276 277 278 279 279 280 281 282 283 284 285 285 285 285 284 285 286 287 288 289 290
252 254 255 257 259 260 261 263 263 263 264 266 267 268 270 271 273 275 277 277 278 279 280 280 282 282 283 284 284 285 284 284 285 285 287 288 289 290
252 254 255 257 259 261 261 262 263 263 264 264 266 267 269 271 273 275 276 277 278 279 280 280 282 283 283 284 284 284 284 285 285 286 287 288 289 290
252 254 255 257 259 259 260 261 263 263 263 264 266 267 269 271 273 275 276 277 278 279 280 281 281 282 282 282 283 284 285 285 286 286 287 288 289 290
252 254 256 258 259 260 261 261 262 263 263 264 266 268 270 271 273 274 276 277 277 279 280 280 280 280 281 281 282 283 284 285 286 286 287 288 289 291
253 255 256 257 259 260 260 261 262 263 263 264 266 267 269 271 273 274 275 276 277 278 279 279 279 279 280 281 283 284 284 285 286 287 287 288 290 290
253 255 256 256 258 259 260 261 261 263 263 264 266 268 269 271 272 273 275 275 276 277 277 277 277 278 279 281 282 283 284 285 286 287 288 289 289 290
253 254 255 256 258 259 260 261 262 263 263 264 266 267 269 270 271 273 274 274 275 275 276 276 277 278 280 280 281 283 284 285 286 287 288 289 289 290
254 255 255 256 258 260 260 261 262 263 264 265 266 267 268 269 271 272 273 273 274 275 275 276 277 278 279 280 281 283 284 286 287 288 289 289 290 291
254 255 255 257 259 260 261 262 263 264 265 266 266 267 268 269 270 271 271 272 273 274 275 276 278 279 280 280 282 283 285 286 287 288 289 290 290 291
257 257 257 258 260 261 262 264 264 264 265 265 266 267 268 268 269 270 271 271 272 273 275 276 278 279 280 281 283 284 285 286 287 288 289 290 291 292
258 258 259 260 261 262 262 263 263 265 265 266 266 267 268 269 269 270 270 271 271 272 274 275 277 279 280 281 283 285 286 286 287 288 289 291 292 293
258 259 259 260 261 261 262 262 262 263 264 266 267 268 268 269 270 270 270 270 271 272 273 275 276 279 281 282 284 285 285 286 287 288 290 291 292 293
258 258 259 259 261 261 260 261 262 263 264 265 267 268 269 270 270 270 270 270 271 272 274 276 278 280 282 283 283 284 285 286 287 289 291 292 293 294
258 259 259 259 260 261 261 261 262 262 263 264 266 268 270 271 271 271 271 271 272 273 275 277 279 280 282 283 283 284 285 286 287 289 290 292 294 295
258 258 259 260 260 261 261 262 262 263 263 264 266 268 270 271 270 270 271 272 273 274 275 277 279 280 281 282 283 284 285 286 288 289 291 292 293 294
258 258 258 259 261 261 262 263 263 264 265 266 267 269 270 270 270 270 271 272 274 275 276 277 278 279 281 282 283 284 285 287 288 290 291 292 293 294
258 258 258 259 260 261 262 263 264 265 267 268 269 270 270 270 270 270 272 273 275 276 276 277 278 279 281 282 283 284 285 286 288 290 292 294 295 296